Volver al catálogo

STARLINK-5278

ActivoComunicacionesVLEO
NORAD 54164·PAYLOAD·🇺🇸 United States

Lanzado Oct 28, 2022 desde Vandenberg Space Force Base

Loading…

Próximos Pases (próximas 24 horas)

TLE

ActualizadoSource: CelesTrak SupGP

Época: Sep 14, 2026, 20:41 UTC

1 54164C 22141H   26257.86229167  .00030823  00000+0  91086-3 0  2572
2 54164  53.1570 220.2978 0001270  96.7909 324.3553 15.34368351    18

Sigue STARLINK-5278 en tiempo real con AllMySat

Download on the App Store